Regional Weather Roundup
Issued by NWS

Home | Current Version | Previous Version | Graphics & Text | Print | Product List | Glossary On
Versions: 1 2 3 4 5 6 7 8 9 10 11 12 13 14 15 16 17 18 19 20 21 22 23 24 25 26 27 28 29 30 31 32 33 34 35 36 37 38 39 40 41 42 43 44 45 46 47 48 49 50
000
ASUS43 KMPX 201901
RWRMN
WEATHER ROUNDUP FOR MINNESOTA
NATIONAL WEATHER SERVICE TWIN CITIES/CHANHASSEN MN
200 PM CDT FRI APR 20 2018


NOTE: "FAIR" INDICATES FEW OR NO CLOUDS BELOW 12,000 FEET WITH NO
SIGNIFICANT WEATHER AND/OR OBSTRUCTIONS TO VISIBILITY. N/A MEANS
CURRENT SKY AND/OR WEATHER CONDITIONS ARE NOT AVAILABLE.

MNZ060>063-068>070-202000-
   Twin Cities Metro

CITY           SKY/WX    TMP DP  RH WIND       PRES   REMARKS
TWIN CITIES    FAIR      49  18  29 S5        30.47F
ST PAUL        FAIR      50  21  32 SE9       30.48F
CRYSTAL        FAIR      49  18  29 SW5       30.46F
BLAINE         PTSUNNY   52  19  28 S7        30.46F
LAKEVILLE      FAIR      46  27  46 S6        30.48F
EDEN PRAIRIE   FAIR      49  24  37 SW6       30.46F
SOUTH ST PAUL  FAIR      50  21  32 CALM      30.47S
LAKE ELMO      FAIR      48  27  43 SW7       30.47F
$$
MNZ001>005-007-008-013>017-022>024-027-028-202000-
   Northwest Minnesota

CITY           SKY/WX    TMP DP  RH WIND       PRES   REMARKS
BEMIDJI        PTSUNNY   55  28  35 SW8       30.39S
HALLOCK        FAIR      55  36  47 S8G17     30.37F
ROSEAU         FAIR      55  37  50 W6        30.38F
WARROAD        FAIR      57  34  41 S8        30.38F
THIEF RVR FALL FAIR      53  32  44 W10       30.41F
CROOKSTON      FAIR      52  32  46 SW8       30.42S
FOSSTON        FAIR      54  28  37 SW9       30.41S
DETROIT LAKES  FAIR      54  27  35 SW10      30.41F
MOORHEAD       FAIR      54  28  37 S14       30.41F
PARK RAPIDS    FAIR      52  29  41 SW9       30.40F
MAHNOMEN       MOCLDY    54  31  41 S9G18     30.40F
$$
MNZ006-009>011-018-025>026-202000-
   North Central Minnesota

CITY           SKY/WX    TMP DP  RH WIND       PRES   REMARKS
BAUDETTE       PTSUNNY   57  29  34 MISG      30.37F
FLAG ISLAND    FAIR      43  28  56 SE9       30.37S
INTL FALLS     FAIR      56  20  24 CALM      30.38F
WASKISH        FAIR      54  32  43 W8        30.39F
BIG FORK       FAIR      57  21  24 CALM      30.38F
LONGVILLE      FAIR      55  25  30 SW5       30.41S
GRAND RAPIDS   FAIR      53  22  29 VRB5      30.41F
CRANE LAKE     FAIR      55  10  16 NW5       30.40F
ORR            FAIR      55  16  21 NW6       30.36F
COOK           FAIR      55  19  24 CALM      30.39F
WALKER         FAIR      53  27  36 E6        30.39F
$$
MNZ012-019>021-037-202000-
   Northeast Minnesota

CITY           SKY/WX    TMP DP  RH WIND       PRES   REMARKS
DULUTH         FAIR      53  25  33 W9        30.40F
ELY            FAIR      55  10  16 CALM      30.39F
HIBBING        FAIR      55  19  24 VRB5      30.39F
EVELETH        FAIR      56  20  24 W6        30.40F
DULUTH HARBOR  FAIR      50  28  43 NE6       30.43S
TWO HARBORS    FAIR      61  30  31 S9        30.39F
SILVER BAY     FAIR      55  21  26 S10       30.39F
GRAND MARAIS     N/A     37  32  82 SW6       30.43S
G MARAIS ARPRT FAIR      52   9  17 SE8       30.41S
$$
MNZ029>031-032-039>041-046>048-054>057-064-202000-
   West Central Minnesota

CITY           SKY/WX    TMP DP  RH WIND       PRES   REMARKS
FERGUS FALLS   FAIR      50  25  37 SE12G18   30.40F
WHEATON        PTSUNNY   50  34  53 SE9       30.42F
MORRIS         MOSUNNY   48  34  57 SE9       30.41F
ALEXANDRIA     FAIR      52  22  30 VRB7      30.44F
ELBOW LAKE     FAIR      51  23  34 SE9       30.43F
WADENA         FAIR      52  27  37 S8        30.42F
GLENWOOD       FAIR      52  25  35 S7        30.44F
APPLETON       PTSUNNY   48  34  57 SE10      30.41F
BENSON         MOSUNNY   50  32  50 S8        30.45F
ORTONVILLE     CLOUDY    48  34  57 SE12      30.40F
MADISON        MOSUNNY   45  36  70 SE9       30.41F
WILLMAR        FAIR      48  34  57 SE9       30.47F
$$
MNZ033>034-036-042>043-049>051-058-059-202000-
   Central Minnesota

CITY           SKY/WX    TMP DP  RH WIND       PRES   REMARKS
ST CLOUD       FAIR      50  24  36 S12       30.45F
SAUK CENTRE    FAIR      49  26  40 S6        30.45S
PAYNESVILLE    FAIR      49  29  46 S6        30.46F
AITKIN         FAIR      54  27  35 S7        30.41S
PINE RIVER     FAIR      52  28  40 S7        30.43F
BRAINERD       FAIR      53  23  31 S12       30.43F
STAPLES        FAIR      48  16  27 S7        30.43F
LONG PRAIRIE   FAIR      48  25  40 SE6       30.44F
LITTLE FALLS   FAIR      50  10  20 SW3       30.45S
LITCHFIELD     FAIR      46  27  46 S5        30.47F
BUFFALO        FAIR      46  22  37 S5        30.48F
MAPLE LAKE     FAIR      47  25  42 S8        30.48F
HUTCHINSON     FAIR      44  28  53 SE6       30.49S
$$
MNZ037-044-045-052-053-202000-
   East Central Minnesota

CITY           SKY/WX    TMP DP  RH WIND       PRES   REMARKS
PRINCETON      FAIR      54  21  28 S9        30.46F
MORA           FAIR      50  23  34 S3        30.47S
CAMBRIDGE        N/A     52  30  43 CALM      30.46F
RUSH CITY      FAIR      50  22  32 SW5       30.46S
MOOSE LAKE     FAIR      54  28  37 SW7       30.41S
HINCKLEY       FAIR      54  30  40 SW10      30.45S
CLOQUET        FAIR      54  18  24 CALM      30.41S
MCGREGOR       FAIR      54  28  37 S9        30.42F
$$
MNZ071>073-080-081-089-090-097-098-202000-
   Southwest Minnesota

CITY           SKY/WX    TMP DP  RH WIND       PRES   REMARKS
MONTEVIDEO     PTSUNNY   48  32  53 S9        30.43F
GRANITE FALLS  CLOUDY    44  32  62 E9        30.45F
CANBY          PTSUNNY   42  31  65 E9        30.43S
MARSHALL       MOSUNNY   41  29  62 SE13      30.43F
REDWOOD FALLS  CLOUDY    40  29  64 SE9       30.45F
OLIVIA         MOSUNNY   46  34  61 SE9       30.45F
PIPESTONE      MOSUNNY  N/A N/A N/A SE8       30.39F
WINDOM         CLOUDY    39  19  45 E9        30.43F
WORTHINGTON    CLOUDY    41  30  65 SE9       30.42F
JACKSON        MOSUNNY   36  28  75 E8        30.44F
TRACY          MOSUNNY   42  32  69 SE8       30.42F
SLAYTON        MOSUNNY   38  31  76 SE10      30.43S
$$
MNZ065>067-074>077-082>085-091>093-202000-
   South Central Minnesota

CITY           SKY/WX    TMP DP  RH WIND       PRES   REMARKS
MANKATO        FAIR      43  26  51 SE7       30.48F
NEW ULM        PTSUNNY   41  21  45 S9        30.47F
ST JAMES       MOSUNNY   37  27  65 E7        30.48F
FAIRMONT       CLOUDY    38  25  59 E12       30.46F
GLENCOE        FAIR      43  27  52 S5        30.47F
OWATONNA       FAIR      45  27  49 S3        30.48S
WASECA         FAIR      41  27  56 S6        30.50S
ALBERT LEA     FAIR      43  16  33 CALM      30.48S
$$
MNZ078>079-086>088-094>096-202000-
   Southeast Minnesota

CITY           SKY/WX    TMP DP  RH WIND       PRES   REMARKS
ROCHESTER      FAIR      43  29  57 SW5       30.47F
RED WING       FAIR      52  18  25 S7        30.47S
STANTON        FAIR      46  30  54 SW9       30.47S
DODGE CENTER   FAIR      43  27  52 S6        30.48S
WINONA         FAIR      54  25  32 N7        30.46F
AUSTIN         FAIR      41  23  48 SE3       30.48F
PRESTON        FAIR      44  24  44 S5        30.48F
$$
ABBREVIATIONS USED IN REMARKS
   TC - TEMPERATURES IN CELSIUS
  WCI - WIND CHILL INDEX
   HX - HEAT INDEX
  VSB - VISIBILITY
$$




USA.gov is the U.S. government's official web portal to all federal, state and local government web resources and services.